Weather in Vigoda

Ukraine / Odesa District     46°36′58″N   30°23′55″E
temp.,
°C
wind,
m/s
gust,
m/s
humid.,
%
clouds,
%
prec.,
mm/h
press.,
hPa
HPBL,
m
7 may, fri
fri700:00+10ne2284100 0.0 101520
03:00+10ene118120 0.0 101510
06:00+10ese22825 0.0 101512
09:00+15se566748 0.0 1015445
12:00+17sse796192 0.0 1015873
15:00+17sse81164100 0.0 1013730
18:00+15s71272100 0.0 1011503
21:00+13sse71687100 0.9 1010512
8 may, sat
sat800:00+14s71786100 0.8 1009466
03:00+13ssw71691100 2.1 1008440
06:00+13wsw41095100 1.4 1010370
09:00+13nnw71178100 1.6 1012758
12:00+12nnw61076100 0.6 1014704
15:00+15nnw81046100 0.8 10161679
18:00+13nnw61146100 0.0 10171739
21:00+10nnw6125783 0.0 1019401
9 may, sun
sun900:00+7nw512690 0.0 1021331
03:00+5nw410803 0.0 1023239
06:00+4nw410780 0.0 1025239
09:00+9nnw68570 0.0 1026825
12:00+14n67412 0.0 10271516
15:00+16nnw45355 0.0 10272281
18:00+16n343437 0.0 10272344
21:00+10s345912 0.0 102851
10 may, mon
mon1000:00+8wsw45705 0.0 102976
03:00+7wnw33745 0.0 102939
06:00+7nnw33740 0.0 102930
09:00+13ene34534 0.0 1029486
12:00+16ese32421 0.0 10291613
15:00+18ene03362 0.0 10272046
18:00+18nne34380 0.0 10261697
21:00+13nne34552 0.0 102654
11 may, tue
tue1100:00+11ene35570 0.0 102661
03:00+8nne34620 0.0 102656
06:00+7nne46720 0.0 1025104
09:00+14nne565526 0.0 1025556
12:00+18nne44475 0.0 10231019
15:00+21nne33445 0.0 10221418
18:00+21nne44475 0.0 10201498
21:00+16nne45645 0.0 102062